This demonstration page uses our WeatherBlox Daily Observations layout. Learn more.

36.17497, -115.13722

Hourly Observations for September 15, 2018

Temp ( °F °C ) Dew Point ( °F °C ) Humidity (%) Winds ( mph kmh ) Pressure ( in mb ) Visibility ( mi km ) Precip ( " mm )
12:53 am 00:53 Clear 78 25.6 31 -0.6 18 18 NW 3 6 29.77 1008 10 16.09344 0 0
1:53 am 01:53 Clear 76 24.4 31 -0.6 19 19 NW 5 7 29.77 1008 10 16.09344 0 0
2:53 am 02:53 Clear 74 23.3 30 -1.1 20 20 NW 5 7 29.77 1008 10 16.09344 0 0
3:53 am 03:53 Clear 74 23.3 32 0 21 21 NW 6 9 29.77 1008 10 16.09344 0 0
4:53 am 04:53 Clear 74 23.3 34 1.1 23 23 WNW 3 6 29.77 1008 10 16.09344 0 0
5:53 am 05:53 Clear 71 21.7 35 1.7 27 27 Calm 29.77 1008 10 16.09344 0 0
6:53 am 06:53 Sunny 72 22.2 35 1.7 26 26 NNW 3 6 29.8 1009 10 16.09344 0 0
7:53 am 07:53 Sunny 78 25.6 33 0.6 19 19 Calm 29.8 1009 10 16.09344 0 0
8:53 am 08:53 Sunny 84 28.9 32 0 15 15 Calm 29.8 1009 10 16.09344 0 0
9:53 am 09:53 Sunny 87 30.6 32 0 14 14 N 6 9 29.8 1009 10 16.09344 0 0
10:53 am 10:53 Sunny 93 33.9 35 1.7 13 13 SSE 12 19 29.77 1008 10 16.09344 0 0
11:53 am 11:53 Sunny 97 36.1 34 1.1 11 11 S 18 30 29.77 1008 10 16.09344 0 0
12:53 pm 12:53 Sunny 100 37.8 32 0 9 9 WSW 16 26 29.74 1007 10 16.09344 0 0
1:53 pm 13:53 Sunny 100 37.8 33 0.6 10 10 SW 17 28 29.74 1007 10 16.09344 0 0
2:53 pm 14:53 Sunny 101 38.3 33 0.6 9 9 SW 25 41 29.71 1006 10 16.09344 0 0
3:53 pm 15:53 Sunny 100 37.8 33 0.6 10 10 WSW 26 43 29.71 1006 10 16.09344 0 0
4:53 pm 16:53 Sunny 99 37.2 33 0.6 10 10 WSW 18 30 29.71 1006 10 16.09344 0 0
5:53 pm 17:53 Sunny 98 36.7 34 1.1 11 11 WSW 14 22 29.71 1006 10 16.09344 0 0
6:53 pm 18:53 Clear 96 35.6 34 1.1 11 11 SW 8 13 29.71 1006 10 16.09344 0 0
7:53 pm 19:53 Clear 94 34.4 34 1.1 12 12 SW 9 15 29.71 1006 10 16.09344 0 0
8:53 pm 20:53 Clear 92 33.3 34 1.1 13 13 N 6 9 29.74 1007 10 16.09344 0 0
9:53 pm 21:53 Clear 89 31.7 33 0.6 14 14 SE 10 17 29.74 1007 10 16.09344 0 0
10:53 pm 22:53 Clear 86 30 32 0 14 14 SSE 7 11 29.74 1007 10 16.09344 0 0
11:53 pm 23:53 Clear 87 30.6 31 -0.6 13 13 SSW 8 13 29.77 1008 10 16.09344 0 0

Powered by AerisWeather